date,time,SUV Intensity [MED/Hr],UV Index,Daily total [MED],Since Last [MED]
29/06/2022,00:09:48,0.000,0.0,0.0,0.0
29/06/2022,00:10:47,0.000,0.0,0.0,0.0
29/06/2022,00:11:48,0.000,0.0,0.0,0.0
29/06/2022,00:12:48,-0.000,0.0,0.0,0.0
29/06/2022,00:13:47,0.000,0.0,0.0,0.0
29/06/2022,00:14:47,0.000,0.0,0.0,0.0
29/06/2022,00:15:47,0.000,0.0,0.0,0.0
29/06/2022,00:16:48,0.000,0.0,0.0,0.0
29/06/2022,00:17:47,0.000,0.0,0.0,0.0
29/06/2022,00:18:47,-0.001,0.0,0.0,0.0
29/06/2022,00:19:48,0.000,0.0,0.0,0.0
29/06/2022,00:20:56,0.000,0.0,0.0,0.0
29/06/2022,00:21:47,-0.001,0.0,0.0,0.0
29/06/2022,00:22:48,-0.001,0.0,0.0,0.0
29/06/2022,00:23:56,-0.000,0.0,0.0,0.0
29/06/2022,00:24:47,0.000,0.0,0.0,0.0
29/06/2022,00:25:47,0.001,0.0,0.0,0.0
29/06/2022,00:26:47,0.000,0.0,0.0,0.0
29/06/2022,00:27:48,-0.001,0.0,0.0,0.0
29/06/2022,00:28:48,-0.000,0.0,0.0,0.0
29/06/2022,00:29:47,0.000,0.0,0.0,0.0
29/06/2022,00:30:48,-0.001,0.0,0.0,0.0
29/06/2022,00:31:48,-0.001,0.0,0.0,0.0
29/06/2022,00:32:48,-0.001,0.0,0.0,0.0
29/06/2022,00:33:48,0.001,0.0,0.0,0.0
29/06/2022,00:34:47,0.001,0.0,0.0,0.0
29/06/2022,00:35:48,0.000,0.0,0.0,0.0
29/06/2022,00:36:48,-0.001,0.0,0.0,0.0
29/06/2022,00:37:48,0.000,0.0,0.0,0.0
29/06/2022,00:38:48,-0.000,0.0,0.0,0.0
29/06/2022,00:39:56,0.000,0.0,0.0,0.0
29/06/2022,00:40:47,-0.001,0.0,0.0,0.0
29/06/2022,00:41:48,0.000,0.0,0.0,0.0
29/06/2022,00:42:48,0.000,0.0,0.0,0.0
29/06/2022,00:43:48,0.000,0.0,0.0,0.0
29/06/2022,00:44:47,0.001,0.0,0.0,0.0
29/06/2022,00:45:48,0.001,0.0,0.0,0.0
29/06/2022,00:46:48,0.001,0.0,0.0,0.0
29/06/2022,00:47:48,0.000,0.0,0.0,0.0
29/06/2022,00:48:48,0.000,0.0,0.0,0.0
29/06/2022,00:49:48,-0.000,0.0,0.0,0.0
29/06/2022,00:50:48,0.001,0.0,0.0,0.0
29/06/2022,00:51:48,0.000,0.0,0.0,0.0
29/06/2022,00:52:56,0.000,0.0,0.0,0.0
29/06/2022,00:53:47,-0.001,0.0,0.0,0.0
29/06/2022,00:54:48,-0.000,0.0,0.0,0.0
29/06/2022,00:55:56,0.000,0.0,0.0,0.0
29/06/2022,00:56:48,-0.000,0.0,0.0,0.0
29/06/2022,00:57:48,0.001,0.0,0.0,0.0
29/06/2022,00:58:48,0.000,0.0,0.0,0.0
29/06/2022,00:59:48,0.000,0.0,0.0,0.0
29/06/2022,01:00:48,0.001,0.0,0.0,0.0
29/06/2022,01:01:47,0.001,0.0,0.0,0.0
29/06/2022,01:02:48,0.000,0.0,0.0,0.0
29/06/2022,01:03:48,-0.000,0.0,0.0,0.0
29/06/2022,01:04:47,-0.000,0.0,0.0,0.0
29/06/2022,01:05:48,0.000,0.0,0.0,0.0
29/06/2022,01:06:48,0.000,0.0,0.0,0.0
29/06/2022,01:07:48,0.000,0.0,0.0,0.0
29/06/2022,01:08:48,0.000,0.0,0.0,0.0
29/06/2022,01:09:48,0.000,0.0,0.0,0.0
29/06/2022,01:10:47,0.000,0.0,0.0,0.0
29/06/2022,01:11:56,0.000,0.0,0.0,0.0
29/06/2022,01:12:47,0.000,0.0,0.0,0.0
29/06/2022,01:13:48,0.000,0.0,0.0,0.0
29/06/2022,01:14:48,0.000,0.0,0.0,0.0
29/06/2022,01:15:48,0.000,0.0,0.0,0.0
29/06/2022,01:16:48,0.001,0.0,0.0,0.0
29/06/2022,01:17:48,0.000,0.0,0.0,0.0
29/06/2022,01:18:48,0.000,0.0,0.0,0.0
29/06/2022,01:19:48,-0.000,0.0,0.0,0.0
29/06/2022,01:20:48,-0.001,0.0,0.0,0.0
29/06/2022,01:21:48,0.000,0.0,0.0,0.0
29/06/2022,01:22:48,0.000,0.0,0.0,0.0
29/06/2022,01:23:47,0.001,0.0,0.0,0.0
29/06/2022,01:24:56,0.000,0.0,0.0,0.0
29/06/2022,01:25:48,0.000,0.0,0.0,0.0
29/06/2022,01:26:48,-0.000,0.0,0.0,0.0
29/06/2022,01:27:48,0.002,0.0,0.0,0.0
29/06/2022,01:28:48,0.000,0.0,0.0,0.0
29/06/2022,01:29:48,0.000,0.0,0.0,0.0
29/06/2022,01:30:48,0.001,0.0,0.0,0.0
29/06/2022,01:31:50,0.001,0.0,0.0,0.0
29/06/2022,01:32:48,-0.000,0.0,0.0,0.0
29/06/2022,01:33:48,0.001,0.0,0.0,0.0
29/06/2022,01:34:48,0.001,0.0,0.0,0.0
29/06/2022,01:35:48,0.000,0.0,0.0,0.0
29/06/2022,01:36:47,0.000,0.0,0.0,0.0
29/06/2022,01:37:57,0.000,0.0,0.0,0.0
29/06/2022,01:38:46,0.001,0.0,0.0,0.0
29/06/2022,01:39:48,0.001,0.0,0.0,0.0
29/06/2022,01:40:56,0.001,0.0,0.0,0.0
29/06/2022,01:41:45,0.001,0.0,0.0,0.0
29/06/2022,01:42:47,0.001,0.0,0.0,0.0
29/06/2022,01:43:47,0.001,0.0,0.0,0.0
29/06/2022,01:44:48,0.001,0.0,0.0,0.0
29/06/2022,01:45:48,0.001,0.0,0.0,0.0
29/06/2022,01:46:47,0.001,0.0,0.0,0.0
29/06/2022,01:47:48,-0.000,0.0,0.0,0.0
29/06/2022,01:48:48,0.001,0.0,0.0,0.0
29/06/2022,01:49:48,0.001,0.0,0.0,0.0
29/06/2022,01:50:56,0.001,0.0,0.0,0.0
29/06/2022,01:51:48,0.001,0.0,0.0,0.0
29/06/2022,01:52:48,0.001,0.0,0.0,0.0
29/06/2022,01:53:56,0.002,0.0,0.0,0.0
29/06/2022,01:54:47,0.001,0.0,0.0,0.0
29/06/2022,01:55:48,0.002,0.0,0.0,0.0
29/06/2022,01:56:48,0.001,0.0,0.0,0.0
29/06/2022,01:57:48,0.001,0.0,0.0,0.0
29/06/2022,01:58:48,0.002,0.0,0.0,0.0
29/06/2022,01:59:48,0.001,0.0,0.0,0.0
29/06/2022,02:00:48,0.001,0.0,0.0,0.0
29/06/2022,02:01:47,-0.000,0.0,0.0,0.0
29/06/2022,02:02:48,0.001,0.0,0.0,0.0
29/06/2022,02:03:57,0.002,0.0,0.0,0.0
29/06/2022,02:05:50,0.001,0.0,0.0,0.0
29/06/2022,02:06:56,0.001,0.0,0.0,0.0
29/06/2022,02:07:47,0.001,0.0,0.0,0.0
29/06/2022,02:08:50,0.001,0.0,0.0,0.0
29/06/2022,02:09:56,0.001,0.0,0.0,0.0
29/06/2022,02:10:47,0.001,0.0,0.0,0.0
29/06/2022,02:11:48,0.002,0.0,0.0,0.0
29/06/2022,02:12:48,0.000,0.0,0.0,0.0
29/06/2022,02:13:48,0.001,0.0,0.0,0.0
29/06/2022,02:14:47,0.001,0.0,0.0,0.0
29/06/2022,02:15:47,0.001,0.0,0.0,0.0
29/06/2022,02:16:48,0.001,0.0,0.0,0.0
29/06/2022,02:17:48,0.001,0.0,0.0,0.0
29/06/2022,02:18:48,0.001,0.0,0.0,0.0
29/06/2022,02:19:56,0.002,0.0,0.0,0.0
29/06/2022,02:21:48,0.001,0.0,0.0,0.0
29/06/2022,02:22:47,0.001,0.0,0.0,0.0
29/06/2022,02:23:48,0.000,0.0,0.0,0.0
29/06/2022,02:24:48,0.002,0.0,0.0,0.0
29/06/2022,02:25:47,0.001,0.0,0.0,0.0
29/06/2022,02:26:48,0.001,0.0,0.0,0.0
29/06/2022,02:27:48,0.001,0.0,0.0,0.0
29/06/2022,02:28:55,0.001,0.0,0.0,0.0
29/06/2022,02:29:48,0.001,0.0,0.0,0.0
29/06/2022,02:30:48,0.001,0.0,0.0,0.0
29/06/2022,02:31:48,0.001,0.0,0.0,0.0
29/06/2022,02:32:56,0.001,0.0,0.0,0.0
29/06/2022,02:33:48,0.001,0.0,0.0,0.0
29/06/2022,02:34:48,0.001,0.0,0.0,0.0
29/06/2022,02:35:48,-0.000,0.0,0.0,0.0
29/06/2022,02:36:48,0.000,0.0,0.0,0.0
29/06/2022,02:37:48,0.000,0.0,0.0,0.0
29/06/2022,02:38:56,0.002,0.0,0.0,0.0
29/06/2022,02:39:48,0.001,0.0,0.0,0.0
29/06/2022,02:40:49,0.001,0.0,0.0,0.0
29/06/2022,02:41:48,0.001,0.0,0.0,0.0
29/06/2022,02:42:48,0.001,0.0,0.0,0.0
29/06/2022,02:43:48,0.001,0.0,0.0,0.0
29/06/2022,02:44:56,0.002,0.0,0.0,0.0
29/06/2022,02:45:48,-0.000,0.0,0.0,0.0
29/06/2022,02:46:48,0.001,0.0,0.0,0.0
29/06/2022,02:47:48,0.001,0.0,0.0,0.0
29/06/2022,02:48:57,0.001,0.0,0.0,0.0
29/06/2022,02:49:48,0.001,0.0,0.0,0.0
29/06/2022,02:50:48,0.001,0.0,0.0,0.0
29/06/2022,02:51:56,0.001,0.0,0.0,0.0
29/06/2022,02:53:49,0.001,0.0,0.0,0.0
29/06/2022,02:54:48,0.001,0.0,0.0,0.0
29/06/2022,02:55:48,0.001,0.0,0.0,0.0
29/06/2022,02:56:48,0.000,0.0,0.0,0.0
29/06/2022,02:57:48,0.001,0.0,0.0,0.0
29/06/2022,02:58:48,0.000,0.0,0.0,0.0
29/06/2022,02:59:47,0.001,0.0,0.0,0.0
29/06/2022,03:00:48,0.000,0.0,0.0,0.0
29/06/2022,03:01:56,0.001,0.0,0.0,0.0
29/06/2022,03:02:48,0.001,0.0,0.0,0.0
29/06/2022,03:03:48,0.001,0.0,0.0,0.0
29/06/2022,03:04:48,0.000,0.0,0.0,0.0
29/06/2022,03:05:48,-0.000,0.0,0.0,0.0
29/06/2022,03:06:52,0.001,0.0,0.0,0.0
29/06/2022,03:07:48,0.001,0.0,0.0,0.0
29/06/2022,03:08:48,0.000,0.0,0.0,0.0
29/06/2022,03:09:48,0.001,0.0,0.0,0.0
29/06/2022,03:10:48,0.001,0.0,0.0,0.0
29/06/2022,03:11:48,0.001,0.0,0.0,0.0
29/06/2022,03:12:48,0.000,0.0,0.0,0.0
29/06/2022,03:13:48,-0.001,0.0,0.0,0.0
29/06/2022,03:14:47,0.001,0.0,0.0,0.0
29/06/2022,03:15:47,0.000,0.0,0.0,0.0
29/06/2022,03:16:48,0.000,0.0,0.0,0.0
29/06/2022,03:17:48,0.000,0.0,0.0,0.0
29/06/2022,03:18:48,0.000,0.0,0.0,0.0
29/06/2022,03:19:48,0.001,0.0,0.0,0.0
29/06/2022,03:20:57,0.000,0.0,0.0,0.0
29/06/2022,03:21:48,0.001,0.0,0.0,0.0
29/06/2022,03:22:48,0.001,0.0,0.0,0.0
29/06/2022,03:23:56,0.001,0.0,0.0,0.0
29/06/2022,03:25:49,0.000,0.0,0.0,0.0
29/06/2022,03:26:48,0.001,0.0,0.0,0.0
29/06/2022,03:27:48,0.001,0.0,0.0,0.0
29/06/2022,03:28:48,0.001,0.0,0.0,0.0
29/06/2022,03:29:48,0.001,0.0,0.0,0.0
29/06/2022,03:30:48,0.001,0.0,0.0,0.0
29/06/2022,03:31:48,-0.000,0.0,0.0,0.0
29/06/2022,03:32:48,0.001,0.0,0.0,0.0
29/06/2022,03:33:57,0.000,0.0,0.0,0.0
29/06/2022,03:34:48,0.001,0.0,0.0,0.0
29/06/2022,03:35:48,0.002,0.0,0.0,0.0
29/06/2022,03:36:56,0.000,0.0,0.0,0.0
29/06/2022,03:37:48,0.001,0.0,0.0,0.0
29/06/2022,03:38:48,0.001,0.0,0.0,0.0
29/06/2022,03:39:48,0.001,0.0,0.0,0.0
29/06/2022,03:40:48,0.001,0.0,0.0,0.0
29/06/2022,03:41:48,0.001,0.0,0.0,0.0
29/06/2022,03:42:48,0.001,0.0,0.0,0.0
29/06/2022,03:43:48,0.001,0.0,0.0,0.0
29/06/2022,03:44:48,0.001,0.0,0.0,0.0
29/06/2022,03:45:48,0.001,0.0,0.0,0.0
29/06/2022,03:46:48,0.001,0.0,0.0,0.0
29/06/2022,03:47:48,0.000,0.0,0.0,0.0
29/06/2022,03:48:48,0.001,0.0,0.0,0.0
29/06/2022,03:49:48,0.000,0.0,0.0,0.0
29/06/2022,03:50:47,0.001,0.0,0.0,0.0
29/06/2022,03:51:48,0.001,0.0,0.0,0.0
29/06/2022,03:52:56,0.002,0.0,0.0,0.0
29/06/2022,03:53:48,0.002,0.0,0.0,0.0
29/06/2022,03:54:48,0.001,0.0,0.0,0.0
29/06/2022,03:56:04,0.001,0.0,0.0,0.0
29/06/2022,03:57:49,0.001,0.0,0.0,0.0
29/06/2022,03:58:48,0.001,0.0,0.0,0.0
29/06/2022,03:59:48,0.002,0.0,0.0,0.0
29/06/2022,04:00:50,0.002,0.0,0.0,0.0
29/06/2022,04:01:48,0.002,0.0,0.0,0.0
29/06/2022,04:02:48,0.001,0.0,0.0,0.0
29/06/2022,04:03:48,0.002,0.0,0.0,0.0
29/06/2022,04:04:48,0.002,0.0,0.0,0.0
29/06/2022,04:05:56,0.002,0.0,0.0,0.0
29/06/2022,04:06:56,0.003,0.0,0.0,0.0
29/06/2022,04:07:47,0.001,0.0,0.0,0.0
29/06/2022,04:08:48,0.002,0.0,0.0,0.0
29/06/2022,04:09:48,0.002,0.0,0.0,0.0
29/06/2022,04:10:48,0.001,0.0,0.0,0.0
29/06/2022,04:11:48,0.003,0.0,0.0,0.0
29/06/2022,04:12:48,0.003,0.0,0.0,0.0
29/06/2022,04:13:48,0.003,0.0,0.0,0.0
29/06/2022,04:14:48,0.003,0.0,0.0,0.0
29/06/2022,04:15:48,0.004,0.0,0.0,0.0
29/06/2022,04:16:48,0.003,0.0,0.0,0.0
29/06/2022,04:17:48,0.004,0.0,0.0,0.0
29/06/2022,04:18:48,0.004,0.0,0.0,0.0
29/06/2022,04:19:48,0.004,0.0,0.0,0.0
29/06/2022,04:20:48,0.004,0.0,0.0,0.0
29/06/2022,04:21:48,0.004,0.0,0.0,0.0
29/06/2022,04:22:48,0.004,0.0,0.0,0.0
29/06/2022,04:23:48,0.004,0.0,0.0,0.0
29/06/2022,04:24:48,0.005,0.0,0.0,0.0
29/06/2022,04:25:48,0.006,0.0,0.0,0.0
29/06/2022,04:26:48,0.005,0.0,0.0,0.0
29/06/2022,04:27:48,0.007,0.0,0.0,0.0
29/06/2022,04:28:48,0.007,0.0,0.0,0.0
29/06/2022,04:29:48,0.008,0.0,0.0,0.0
29/06/2022,04:30:48,0.008,0.0,0.001,0.001
29/06/2022,04:31:48,0.008,0.0,0.001,0.0
29/06/2022,04:32:57,0.009,0.0,0.001,0.0
29/06/2022,04:33:48,0.010,0.0,0.001,0.0
29/06/2022,04:34:48,0.010,0.0,0.001,0.0
29/06/2022,04:35:57,0.010,0.0,0.001,0.0
29/06/2022,04:36:48,0.011,0.0,0.002,0.001
29/06/2022,04:37:48,0.011,0.0,0.002,0.0
29/06/2022,04:38:49,0.011,0.0,0.002,0.0
29/06/2022,04:39:48,0.011,0.0,0.002,0.0
29/06/2022,04:40:49,0.011,0.0,0.002,0.0
29/06/2022,04:41:48,0.011,0.0,0.003,0.001
29/06/2022,04:42:48,0.010,0.0,0.003,0.0
29/06/2022,04:43:48,0.010,0.0,0.003,0.0
29/06/2022,04:44:48,0.011,0.0,0.003,0.0
29/06/2022,04:45:57,0.012,0.0,0.003,0.0
29/06/2022,04:46:49,0.014,0.0,0.003,0.0
29/06/2022,04:47:48,0.014,0.0,0.004,0.001
29/06/2022,04:48:48,0.015,0.0,0.004,0.0
29/06/2022,04:49:48,0.016,0.0,0.004,0.0
29/06/2022,04:50:48,0.017,0.0,0.004,0.0
29/06/2022,04:51:56,0.019,0.0,0.005,0.001
29/06/2022,04:52:48,0.019,0.0,0.005,0.0
29/06/2022,04:53:48,0.020,0.0,0.005,0.0
29/06/2022,04:54:48,0.020,0.0,0.006,0.001
29/06/2022,04:55:48,0.021,0.0,0.006,0.0
29/06/2022,04:56:48,0.022,0.0,0.006,0.0
29/06/2022,04:57:49,0.022,0.0,0.007,0.001
29/06/2022,04:58:48,0.022,0.0,0.007,0.0
29/06/2022,04:59:48,0.023,0.0,0.008,0.001
29/06/2022,05:00:48,0.023,0.0,0.008,0.0
29/06/2022,05:01:49,0.024,0.0,0.008,0.0
29/06/2022,05:02:48,0.025,0.0,0.009,0.001
29/06/2022,05:03:48,0.025,0.0,0.009,0.0
29/06/2022,05:04:56,0.027,0.0,0.01,0.001
29/06/2022,05:05:48,0.027,0.0,0.01,0.0
29/06/2022,05:06:48,0.027,0.0,0.01,0.0
29/06/2022,05:07:49,0.028,0.0,0.011,0.001
29/06/2022,05:08:48,0.029,0.0,0.011,0.0
29/06/2022,05:09:56,0.029,0.0,0.012,0.001
29/06/2022,05:10:48,0.030,0.0,0.012,0.0
29/06/2022,05:11:48,0.032,0.0,0.013,0.001
29/06/2022,05:12:48,0.032,0.0,0.013,0.0
29/06/2022,05:13:49,0.033,0.0,0.014,0.001
29/06/2022,05:14:48,0.033,0.0,0.015,0.001
29/06/2022,05:15:48,0.035,0.0,0.015,0.0
29/06/2022,05:16:49,0.035,0.0,0.016,0.001
29/06/2022,05:17:56,0.037,0.0,0.016,0.0
29/06/2022,05:18:48,0.038,0.0,0.017,0.001
29/06/2022,05:19:48,0.039,0.0,0.018,0.001
29/06/2022,05:20:57,0.040,0.0,0.018,0.0
29/06/2022,05:21:48,0.040,0.0,0.019,0.001
29/06/2022,05:22:48,0.042,0.0,0.02,0.001
29/06/2022,05:23:48,0.043,0.0,0.02,0.0
29/06/2022,05:24:50,0.044,0.0,0.021,0.001
29/06/2022,05:25:48,0.045,0.0,0.022,0.001
29/06/2022,05:26:57,0.046,0.0,0.023,0.001
29/06/2022,05:27:48,0.048,0.0,0.023,0.0
29/06/2022,05:28:48,0.047,0.0,0.024,0.001
29/06/2022,05:29:48,0.050,0.0,0.025,0.001
29/06/2022,05:30:48,0.051,0.0,0.026,0.001
29/06/2022,05:31:48,0.051,0.0,0.027,0.001
29/06/2022,05:32:49,0.053,0.0,0.027,0.0
29/06/2022,05:33:48,0.056,0.0,0.028,0.001
29/06/2022,05:34:48,0.056,0.0,0.029,0.001
29/06/2022,05:35:48,0.057,0.0,0.03,0.001
29/06/2022,05:36:48,0.060,0.0,0.031,0.001
29/06/2022,05:37:48,0.061,0.0,0.032,0.001
29/06/2022,05:38:49,0.063,0.0,0.033,0.001
29/06/2022,05:39:49,0.064,0.0,0.034,0.001
29/06/2022,05:40:48,0.066,0.0,0.035,0.001
29/06/2022,05:41:48,0.068,0.0,0.036,0.001
29/06/2022,05:42:48,0.069,0.0,0.038,0.002
29/06/2022,05:43:57,0.073,0.0,0.039,0.001
29/06/2022,05:44:48,0.074,0.0,0.04,0.001
29/06/2022,05:45:48,0.075,0.0,0.041,0.001
29/06/2022,05:46:48,0.077,0.0,0.042,0.001
29/06/2022,05:47:48,0.078,0.0,0.044,0.002
29/06/2022,05:48:49,0.076,0.0,0.045,0.001
29/06/2022,05:49:48,0.077,0.0,0.046,0.001
29/06/2022,05:50:48,0.079,0.0,0.048,0.002
29/06/2022,05:51:49,0.084,0.0,0.049,0.001
29/06/2022,05:52:48,0.084,0.0,0.05,0.001
29/06/2022,05:53:49,0.087,0.0,0.052,0.002
29/06/2022,05:54:48,0.091,0.0,0.053,0.001
29/06/2022,05:55:48,0.090,0.0,0.055,0.002
29/06/2022,05:56:48,0.093,0.0,0.056,0.001
29/06/2022,05:58:05,0.097,0.0,0.058,0.002
29/06/2022,05:59:49,0.107,0.0,0.061,0.003
29/06/2022,06:00:49,0.108,0.0,0.063,0.002
29/06/2022,06:01:49,0.103,0.0,0.065,0.002
29/06/2022,06:02:49,0.104,0.0,0.067,0.002
29/06/2022,06:03:48,0.103,0.0,0.068,0.001
29/06/2022,06:04:49,0.105,0.0,0.07,0.002
29/06/2022,06:05:48,0.106,0.0,0.072,0.002
29/06/2022,06:06:48,0.108,0.0,0.074,0.002
29/06/2022,06:07:49,0.110,0.0,0.076,0.002
29/06/2022,06:08:49,0.111,0.0,0.077,0.001
29/06/2022,06:09:48,0.111,0.0,0.079,0.002
29/06/2022,06:10:48,0.106,0.0,0.081,0.002
29/06/2022,06:11:56,0.102,0.0,0.083,0.002
29/06/2022,06:12:48,0.099,0.0,0.084,0.001
29/06/2022,06:13:48,0.105,0.0,0.086,0.002
29/06/2022,06:14:48,0.105,0.0,0.088,0.002
29/06/2022,06:15:48,0.101,0.0,0.09,0.002
29/06/2022,06:16:48,0.105,0.0,0.091,0.001
29/06/2022,06:17:49,0.117,0.0,0.093,0.002
29/06/2022,06:18:48,0.132,0.0,0.095,0.002
29/06/2022,06:19:48,0.136,0.0,0.097,0.002
29/06/2022,06:20:48,0.137,0.0,0.1,0.003
29/06/2022,06:21:48,0.156,0.0,0.102,0.002
29/06/2022,06:22:49,0.159,0.0,0.105,0.003
29/06/2022,06:23:56,0.149,0.0,0.108,0.003
29/06/2022,06:24:48,0.164,0.0,0.11,0.002
29/06/2022,06:25:48,0.159,0.0,0.112,0.002
29/06/2022,06:26:49,0.160,0.0,0.115,0.003
29/06/2022,06:27:49,0.167,0.0,0.118,0.003
29/06/2022,06:28:48,0.187,0.0,0.121,0.003
29/06/2022,06:29:48,0.178,0.0,0.124,0.003
29/06/2022,06:30:48,0.193,0.0,0.127,0.003
29/06/2022,06:31:48,0.188,0.0,0.13,0.003
29/06/2022,06:32:48,0.176,0.0,0.133,0.003
29/06/2022,06:33:48,0.201,0.0,0.136,0.003
29/06/2022,06:34:48,0.205,0.0,0.14,0.004
29/06/2022,06:35:49,0.185,0.0,0.143,0.003
29/06/2022,06:36:56,0.186,0.0,0.147,0.004
29/06/2022,06:37:48,0.214,0.0,0.15,0.003
29/06/2022,06:38:48,0.219,1.0,0.153,0.003
29/06/2022,06:39:56,0.223,1.0,0.157,0.004
29/06/2022,06:40:48,0.222,1.0,0.161,0.004
29/06/2022,06:41:48,0.206,0.0,0.164,0.003
29/06/2022,06:42:49,0.207,0.0,0.168,0.004
29/06/2022,06:43:48,0.233,1.0,0.171,0.003
29/06/2022,06:44:48,0.239,1.0,0.175,0.004
29/06/2022,06:45:49,0.222,1.0,0.179,0.004
29/06/2022,06:46:48,0.249,1.0,0.183,0.004
29/06/2022,06:47:48,0.252,1.0,0.187,0.004
29/06/2022,06:48:49,0.254,1.0,0.192,0.005
29/06/2022,06:49:57,0.260,1.0,0.196,0.004
29/06/2022,06:51:49,0.227,1.0,0.204,0.008
29/06/2022,06:52:49,0.272,1.0,0.209,0.005
29/06/2022,06:53:48,0.275,1.0,0.213,0.004
29/06/2022,06:54:48,0.280,1.0,0.218,0.005
29/06/2022,06:55:48,0.283,1.0,0.223,0.005
29/06/2022,06:56:49,0.288,1.0,0.227,0.004
29/06/2022,06:57:48,0.283,1.0,0.232,0.005
29/06/2022,06:58:48,0.240,1.0,0.236,0.004
29/06/2022,06:59:48,0.299,1.0,0.241,0.005
29/06/2022,07:00:48,0.304,1.0,0.246,0.005
29/06/2022,07:01:57,0.306,1.0,0.252,0.006
29/06/2022,07:02:48,0.311,1.0,0.256,0.004
29/06/2022,07:03:49,0.318,1.0,0.261,0.005
29/06/2022,07:04:48,0.327,1.0,0.267,0.006
29/06/2022,07:05:56,0.329,1.0,0.273,0.006
29/06/2022,07:07:49,0.342,1.0,0.283,0.01
29/06/2022,07:08:48,0.347,1.0,0.289,0.006
29/06/2022,07:09:49,0.297,1.0,0.294,0.005
29/06/2022,07:10:49,0.358,1.0,0.3,0.006
29/06/2022,07:11:49,0.365,1.0,0.306,0.006
29/06/2022,07:12:48,0.337,1.0,0.312,0.006
29/06/2022,07:13:49,0.340,1.0,0.317,0.005
29/06/2022,07:14:48,0.317,1.0,0.323,0.006
29/06/2022,07:15:57,0.385,1.0,0.33,0.007
29/06/2022,07:16:48,0.368,1.0,0.335,0.005
29/06/2022,07:17:49,0.399,1.0,0.342,0.007
29/06/2022,07:18:56,0.406,1.0,0.349,0.007
29/06/2022,07:19:49,0.406,1.0,0.355,0.006
29/06/2022,07:20:48,0.407,1.0,0.361,0.006
29/06/2022,07:21:48,0.424,1.0,0.368,0.007
29/06/2022,07:22:48,0.436,1.0,0.375,0.007
29/06/2022,07:23:48,0.453,1.0,0.383,0.008
29/06/2022,07:24:48,0.466,1.0,0.39,0.007
29/06/2022,07:25:48,0.470,1.0,0.398,0.008
29/06/2022,07:26:49,0.475,1.0,0.406,0.008
29/06/2022,07:27:49,0.405,1.0,0.414,0.008
29/06/2022,07:28:57,0.460,1.0,0.422,0.008
29/06/2022,07:29:49,0.383,1.0,0.428,0.006
29/06/2022,07:30:56,0.345,1.0,0.436,0.008
29/06/2022,07:31:35,0.341,1.0,0.439,0.003
29/06/2022,07:32:49,0.339,1.0,0.446,0.007
29/06/2022,07:33:48,0.365,1.0,0.452,0.006
29/06/2022,07:34:48,0.336,1.0,0.458,0.006
29/06/2022,07:35:49,0.361,1.0,0.464,0.006
29/06/2022,07:36:48,0.352,1.0,0.47,0.006
29/06/2022,07:37:48,0.387,1.0,0.476,0.006
29/06/2022,07:38:57,0.317,1.0,0.483,0.007
29/06/2022,07:39:36,0.314,1.0,0.486,0.003
29/06/2022,07:40:49,0.343,1.0,0.492,0.006
29/06/2022,07:41:56,0.437,1.0,0.5,0.008
29/06/2022,07:42:48,0.457,1.0,0.507,0.007
29/06/2022,07:43:49,0.463,1.0,0.514,0.007
29/06/2022,07:44:49,0.504,1.0,0.522,0.008
29/06/2022,07:45:48,0.461,1.0,0.531,0.009
29/06/2022,07:46:48,0.368,1.0,0.537,0.006
29/06/2022,07:47:49,0.516,1.0,0.544,0.007
29/06/2022,07:48:49,0.563,1.0,0.553,0.009
29/06/2022,07:49:48,0.431,1.0,0.561,0.008
29/06/2022,07:50:48,0.432,1.0,0.569,0.008
29/06/2022,07:51:56,0.390,1.0,0.576,0.007
29/06/2022,07:52:48,0.394,1.0,0.582,0.006
29/06/2022,07:53:49,0.365,1.0,0.588,0.006
29/06/2022,07:54:49,0.351,1.0,0.594,0.006
29/06/2022,07:55:48,0.344,1.0,0.6,0.006
29/06/2022,07:56:49,0.344,1.0,0.606,0.006
29/06/2022,07:57:49,0.349,1.0,0.611,0.005
29/06/2022,07:58:49,0.362,1.0,0.617,0.006
29/06/2022,07:59:48,0.370,1.0,0.623,0.006
29/06/2022,08:00:49,0.379,1.0,0.63,0.007
29/06/2022,08:01:56,0.391,1.0,0.637,0.007
29/06/2022,08:02:48,0.397,1.0,0.643,0.006
29/06/2022,08:03:48,0.396,1.0,0.649,0.006
29/06/2022,08:04:57,0.394,1.0,0.657,0.008
29/06/2022,08:05:48,0.394,1.0,0.662,0.005
29/06/2022,08:06:48,0.428,1.0,0.669,0.007
29/06/2022,08:07:56,0.566,1.0,0.679,0.01
29/06/2022,08:08:50,0.693,2.0,0.688,0.009
29/06/2022,08:09:48,0.717,2.0,0.7,0.012
29/06/2022,08:10:48,0.756,2.0,0.711,0.011
29/06/2022,08:11:48,0.774,2.0,0.724,0.013
29/06/2022,08:13:05,0.789,2.0,0.74,0.016
29/06/2022,08:14:57,0.757,2.0,0.764,0.024
29/06/2022,08:15:48,0.752,2.0,0.775,0.011
29/06/2022,08:16:48,0.820,2.0,0.789,0.014
29/06/2022,08:17:56,0.786,2.0,0.804,0.015
29/06/2022,08:18:49,0.778,2.0,0.815,0.011
29/06/2022,08:19:48,0.787,2.0,0.828,0.013
29/06/2022,08:20:57,0.775,2.0,0.843,0.015
29/06/2022,08:21:49,0.796,2.0,0.853,0.01
29/06/2022,08:22:49,0.710,2.0,0.866,0.013
29/06/2022,08:23:50,0.471,1.0,0.876,0.01
29/06/2022,08:24:48,0.703,2.0,0.886,0.01
29/06/2022,08:25:48,0.411,1.0,0.896,0.01
29/06/2022,08:26:49,0.358,1.0,0.902,0.006
29/06/2022,08:27:49,0.338,1.0,0.908,0.006
29/06/2022,08:28:48,0.374,1.0,0.914,0.006
29/06/2022,08:29:48,0.409,1.0,0.92,0.006
29/06/2022,08:30:56,0.472,1.0,0.929,0.009
29/06/2022,08:31:49,0.474,1.0,0.936,0.007
29/06/2022,08:32:49,0.481,1.0,0.944,0.008
29/06/2022,08:33:49,0.520,1.0,0.952,0.008
29/06/2022,08:34:48,0.507,1.0,0.96,0.008
29/06/2022,08:35:48,0.526,1.0,0.969,0.009
29/06/2022,08:36:57,0.664,2.0,0.98,0.011
29/06/2022,08:37:49,0.824,2.0,0.991,0.011
29/06/2022,08:38:49,0.915,2.0,1.004,0.013
29/06/2022,08:39:49,0.921,2.0,1.02,0.016
29/06/2022,08:40:48,0.884,2.0,1.035,0.015
29/06/2022,08:41:49,0.873,2.0,1.05,0.015
29/06/2022,08:42:48,0.863,2.0,1.065,0.015
29/06/2022,08:43:49,0.732,2.0,1.078,0.013
29/06/2022,08:44:49,0.660,2.0,1.09,0.012
29/06/2022,08:45:49,0.603,1.0,1.101,0.011
29/06/2022,08:46:48,0.555,1.0,1.11,0.009
29/06/2022,08:47:48,0.501,1.0,1.119,0.009
29/06/2022,08:48:48,0.712,2.0,1.128,0.009
29/06/2022,08:49:57,0.642,1.0,1.141,0.013
29/06/2022,08:50:48,0.690,2.0,1.15,0.009
29/06/2022,08:51:49,0.635,1.0,1.161,0.011
29/06/2022,08:52:49,0.804,2.0,1.176,0.015
29/06/2022,08:53:48,1.075,2.0,1.191,0.015
29/06/2022,08:54:48,0.698,2.0,1.204,0.013
29/06/2022,08:55:49,0.805,2.0,1.221,0.017
29/06/2022,08:56:49,0.768,2.0,1.233,0.012
29/06/2022,08:57:48,0.919,2.0,1.248,0.015
29/06/2022,08:58:49,0.819,2.0,1.262,0.014
29/06/2022,08:59:49,0.779,2.0,1.276,0.014
29/06/2022,09:00:49,0.944,2.0,1.289,0.013
29/06/2022,09:01:48,0.962,2.0,1.304,0.015
29/06/2022,09:02:48,1.094,3.0,1.32,0.016
29/06/2022,09:03:48,1.098,3.0,1.339,0.019
29/06/2022,09:04:49,1.088,3.0,1.358,0.019
29/06/2022,09:05:49,0.719,2.0,1.37,0.012
29/06/2022,09:06:48,0.739,2.0,1.383,0.013
29/06/2022,09:07:48,1.132,3.0,1.398,0.015
29/06/2022,09:08:48,0.816,2.0,1.413,0.015
29/06/2022,09:09:49,0.787,2.0,1.428,0.015
29/06/2022,09:10:49,0.787,2.0,1.441,0.013
29/06/2022,09:11:48,0.817,2.0,1.456,0.015
29/06/2022,09:12:49,1.312,3.0,1.475,0.019
29/06/2022,09:13:48,1.285,3.0,1.493,0.018
29/06/2022,09:14:49,1.131,3.0,1.513,0.02
29/06/2022,09:15:49,0.638,1.0,1.527,0.014
29/06/2022,09:16:48,0.912,2.0,1.541,0.014
29/06/2022,09:17:48,1.022,2.0,1.557,0.016
29/06/2022,09:18:48,1.293,3.0,1.574,0.017
29/06/2022,09:19:49,0.859,2.0,1.595,0.021
29/06/2022,09:20:49,0.866,2.0,1.611,0.016
29/06/2022,09:22:06,1.349,3.0,1.638,0.027
29/06/2022,09:23:49,1.380,3.0,1.678,0.04
29/06/2022,09:24:49,1.301,3.0,1.7,0.022
29/06/2022,09:25:49,1.323,3.0,1.719,0.019
29/06/2022,09:26:48,1.397,3.0,1.741,0.022
29/06/2022,09:27:48,1.424,3.0,1.765,0.024
29/06/2022,09:28:49,1.456,3.0,1.787,0.022
29/06/2022,09:29:48,0.933,2.0,1.805,0.018
29/06/2022,09:30:49,1.416,3.0,1.826,0.021
29/06/2022,09:31:49,1.432,3.0,1.85,0.024
29/06/2022,09:32:49,0.914,2.0,1.869,0.019
29/06/2022,09:33:57,0.881,2.0,1.887,0.018
29/06/2022,09:34:48,0.776,2.0,1.898,0.011
29/06/2022,09:35:48,0.795,2.0,1.911,0.013
29/06/2022,09:36:57,1.007,2.0,1.928,0.017
29/06/2022,09:37:48,0.681,2.0,1.939,0.011
29/06/2022,09:38:49,0.588,1.0,1.95,0.011
29/06/2022,09:39:56,0.548,1.0,1.96,0.01
29/06/2022,09:40:49,0.564,1.0,1.968,0.008
29/06/2022,09:41:49,0.560,1.0,1.978,0.01
29/06/2022,09:42:57,0.565,1.0,1.988,0.01
29/06/2022,09:44:49,0.489,1.0,2.004,0.016
29/06/2022,09:45:48,0.508,1.0,2.012,0.008
29/06/2022,09:46:48,0.499,1.0,2.023,0.011
29/06/2022,09:47:48,0.488,1.0,2.031,0.008
29/06/2022,09:48:49,0.479,1.0,2.039,0.008
29/06/2022,09:49:49,0.487,1.0,2.047,0.008
29/06/2022,09:50:49,0.487,1.0,2.056,0.009
29/06/2022,09:51:48,0.458,1.0,2.064,0.008
29/06/2022,09:52:57,0.444,1.0,2.073,0.009
29/06/2022,09:53:48,0.425,1.0,2.079,0.006
29/06/2022,09:54:48,0.387,1.0,2.086,0.007
29/06/2022,09:55:57,0.375,1.0,2.093,0.007
29/06/2022,09:56:49,0.399,1.0,2.099,0.006
29/06/2022,09:57:48,1.178,3.0,2.107,0.008
29/06/2022,09:58:49,1.246,3.0,2.125,0.018
29/06/2022,09:59:48,0.623,1.0,2.137,0.012
29/06/2022,10:00:49,0.593,1.0,2.147,0.01
29/06/2022,10:01:49,0.542,1.0,2.157,0.01
29/06/2022,10:02:49,0.512,1.0,2.166,0.009
29/06/2022,10:03:49,0.545,1.0,2.174,0.008
29/06/2022,10:04:48,0.634,1.0,2.184,0.01
29/06/2022,10:05:49,0.752,2.0,2.195,0.011
29/06/2022,10:06:49,0.595,1.0,2.206,0.011
29/06/2022,10:07:49,0.563,1.0,2.216,0.01
29/06/2022,10:08:48,0.541,1.0,2.225,0.009
29/06/2022,10:09:49,0.549,1.0,2.234,0.009
29/06/2022,10:10:48,0.598,1.0,2.243,0.009
29/06/2022,10:11:57,0.757,2.0,2.263,0.02
29/06/2022,10:12:49,0.531,1.0,2.271,0.008
29/06/2022,10:13:50,0.513,1.0,2.28,0.009
29/06/2022,10:14:48,0.500,1.0,2.288,0.008
29/06/2022,10:15:48,0.489,1.0,2.297,0.009